Vorticity
14 17 13 9 1 -3 6 -1 -0 19 11 12 13 6 7 9 8 15 12 11 17 30 13 -5 6 -2 2 3 11 0 9 3 15 -0 3 -12 0 -3 -1 4 16 14 17 -9
16 12 16 10 6 2 5 4 10 19 10 11 6 9 9 7 5 6 7 15 12 34 17 24 13 -1 1 3 0 8 11 12 11 7 -7 -17 -9 1 0 1 1 10 11 17
7 7 8 7 3 3 4 13 22 8 14 8 7 11 8 6 9 5 4 5 9 12 8 13 42 8 -0 -0 3 0 4 2 5 14 11 5 0 10 7 3 10 5 4 6
4 4 5 5 9 21 23 11 5 6 5 6 6 7 4 6 3 7 7 8 7 6 11 13 14 34 43 2 -0 -0 2 -1 1 -3 6 8 10 14 6 8 2 14 8 5
23 27 28 21 5 -0 5 5 7 4 4 3 -0 5 5 6 4 2 2 5 4 13 5 5 18 17 23 58 4 -1 1 5 1 -1 3 3 2 4 9 11 6 5 8 5
6 2 5 5 3 1 -1 -2 -1 1 -5 -2 -1 4 1 1 2 -4 4 5 2 2 9 10 3 3 14 26 28 36 9 1 -2 -3 1 4 5 -9 8 0 6 10 6 14
3 6 3 2 4 6 5 4 4 5 8 7 6 7 3 5 6 3 9 3 -2 5 6 5 7 11 2 8 13 36 32 28 12 4 -3 0 0 3 3 2 2 10 11 13
3 3 3 1 3 2 8 6 7 8 6 11 11 6 8 10 9 9 9 7 5 1 5 5 7 7 5 3 9 4 36 24 26 18 15 23 25 25 10 7 -6 8 7 9
5 2 4 6 12 5 5 9 7 6 -1 11 12 7 13 16 17 18 14 13 8 6 5 4 5 8 6 9 5 13 16 30 23 15 17 15 17 20 17 18 27 31 10 -2
2 2 8 10 7 9 5 11 12 13 13 27 21 23 18 30 21 21 18 18 18 15 13 11 8 11 13 11 8 11 10 9 14 23 21 19 15 14 14 12 11 11 15 18
5 7 10 7 4 7 6 7 13 33 19 28 30 28 47 -0 30 24 23 24 19 14 14 13 14 12 13 11 13 9 9 7 11 12 5 10 13 13 12 15 13 13 11 10
8 10 7 6 8 7 6 15 29 34 25 28 29 53 27 21 5 -2 10 13 13 22 23 18 15 18 11 11 2 8 11 8 11 -1 12 17 15 17 15 14 13 13 13 11
12 10 6 7 7 7 13 39 28 20 11 10 15 5 28 29 -3 30 22 11 20 4 23 10 11 13 20 16 10 11 11 9 8 8 15 16 12 12 14 13 12 14 16 16
12 6 7 7 9 17 34 29 10 10 15 12 12 13 20 31 29 21 21 15 21 22 18 19 2 -1 5 14 10 9 13 8 10 17 16 12 9 7 7 9 15 18 19 16
7 6 6 9 16 26 27 8 15 12 18 9 11 23 25 17 44 10 16 5 28 23 21 23 28 30 27 23 16 21 20 16 16 10 8 11 15 11 9 10 12 7 9 12
4 8 8 14 23 29 22 13 11 11 13 20 15 32 21 21 34 24 -19 18 -20 39 -11 6 8 7 0 15 4 5 13 10 17 10 13 14 8 14 11 7 4 5 4 12
5 10 11 25 22 22 17 19 16 13 11 16 18 30 13 15 27 43 12 -14 -1 -7 -4 9 7 8 11 18 21 23 13 2 8 4 9 12 16 14 12 13 13 15 10 9
6 13 14 28 17 14 16 17 19 17 16 14 23 22 13 9 15 21 38 38 7 30 8 20 21 5 -4 12 11 12 12 18 22 17 7 0 -0 3 6 9 8 5 13 22
11 14 25 20 14 17 13 11 14 17 20 13 21 15 11 12 11 15 19 15 -4 1 8 11 9 15 13 14 10 13 9 12 18 19 22 27 27 25 18 14 4 1 2 2
14 23 25 11 13 16 15 11 11 17 18 18 17 11 10 9 10 12 20 1 -13 -10 -13 4 11 10 12 12 16 5 8 10 7 7 12 10 15 19 23 21 22 24 20 17
20 19 19 15 10 17 13 15 16 13 16 18 16 16 16 16 14 16 18 18 21 28 26 26 12 3 7 6 3 11 6 1 4 5 7 9 5 3 6 13 18 19 17 13
18 19 16 15 16 24 19 15 14 11 14 16 16 16 17 18 17 18 18 21 10 5 4 -8 6 7 10 7 11 17 15 6 9 12 8 9 4 2 4 6 8 8 11 19
17 16 16 20 11 24 17 7 10 12 15 13 15 13 13 20 19 21 20 19 19 20 20 25 21 24 22 11 9 15 11 16 29 23 20 14 11 14 11 5 4 5 4 3
18 19 23 17 29 26 13 14 16 16 16 13 11 9 10 11 14 19 21 11 11 12 11 8 9 22 29 23 14 4 6 9 -0 -6 -2 5 9 7 9 11 12 9 6 8
20 19 19 22 28 8 8 -0 16 12 10 11 14 18 18 15 13 12 14 14 14 18 15 19 19 17 7 9 11 16 15 9 9 8 9 10 10 9 9 12 7 12 16 15
19 22 20 27 10 6 2 1 24 12 10 14 11 11 10 13 16 17 16 12 12 15 14 12 4 7 8 11 19 18 20 20 20 18 14 13 14 12 11 16 16 11 10 14
22 19 17 13 7 4 -0 9 14 10 9 11 8 11 9 5 5 13 14 11 15 18 16 13 7 7 5 8 8 9 12 16 12 22 10 15 21 16 18 12 13 17 16 14
Height
5682 5678 5674 5670 5667 5663 5658 5655 5650 5645 5641 5636 5631 5628 5623 5620 5615 5611 5608 5606 5603 5600 5602 5603 5601 5602 5600 5601 5602 5602 5603 5602 5603 5605 5606 5607 5610 5614 5616 5619 5621 5625 5630 5639
5675 5671 5667 5663 5660 5657 5654 5649 5645 5640 5636 5632 5628 5625 5620 5616 5612 5608 5605 5603 5600 5597 5595 5595 5594 5596 5596 5596 5597 5598 5598 5599 5601 5603 5606 5608 5610 5612 5612 5615 5620 5624 5627 5633
5668 5664 5661 5657 5653 5650 5647 5644 5639 5637 5632 5628 5625 5620 5617 5612 5609 5604 5601 5598 5596 5594 5590 5586 5587 5589 5590 5590 5590 5591 5593 5594 5596 5599 5600 5602 5603 5606 5607 5609 5614 5620 5625 5627
5662 5657 5653 5650 5647 5643 5640 5637 5634 5631 5628 5623 5619 5616 5612 5609 5605 5601 5596 5594 5591 5589 5585 5580 5578 5579 5581 5582 5582 5583 5584 5588 5589 5592 5593 5595 5597 5599 5601 5604 5609 5611 5619 5621
5654 5649 5645 5642 5639 5636 5633 5630 5627 5624 5622 5617 5614 5609 5608 5603 5598 5595 5592 5587 5584 5581 5579 5575 5572 5569 5571 5571 5574 5574 5575 5577 5579 5583 5584 5586 5589 5590 5591 5597 5600 5606 5608 5614
5647 5643 5640 5636 5633 5630 5626 5622 5619 5615 5613 5609 5604 5600 5596 5593 5588 5587 5582 5579 5576 5573 5570 5567 5564 5563 5561 5562 5563 5563 5564 5567 5569 5571 5573 5573 5573 5583 5587 5591 5593 5597 5599 5612
5641 5637 5633 5628 5623 5620 5615 5610 5606 5602 5601 5595 5590 5586 5583 5577 5575 5573 5570 5566 5563 5562 5559 5557 5554 5553 5552 5551 5550 5550 5551 5553 5556 5558 5563 5557 5566 5573 5576 5578 5584 5585 5589 5594
5633 5629 5623 5618 5613 5608 5602 5595 5589 5585 5585 5581 5576 5567 5563 5560 5557 5555 5554 5551 5549 5547 5546 5544 5543 5543 5541 5541 5540 5540 5539 5539 5541 5543 5548 5550 5557 5560 5565 5566 5572 5572 5576 5578
5622 5618 5613 5607 5601 5593 5588 5579 5570 5564 5562 5564 5555 5547 5541 5535 5533 5533 5533 5534 5533 5532 5531 5530 5530 5531 5530 5529 5530 5530 5529 5528 5529 5531 5531 5534 5544 5545 5547 5549 5553 5557 5560 5564
5612 5606 5601 5594 5588 5579 5572 5565 5551 5538 5535 5539 5529 5522 5516 5513 5512 5512 5513 5514 5515 5516 5516 5516 5517 5519 5519 5520 5520 5522 5520 5520 5521 5521 5520 5523 5531 5532 5533 5538 5542 5542 5544 5547
5601 5594 5587 5579 5571 5563 5555 5547 5535 5520 5510 5510 5504 5501 5496 5498 5496 5495 5496 5496 5500 5501 5502 5502 5504 5504 5507 5509 5510 5511 5512 5512 5514 5514 5513 5516 5519 5519 5522 5526 5527 5528 5530 5534
5587 5579 5572 5564 5554 5545 5534 5524 5512 5501 5492 5490 5489 5487 5485 5484 5484 5483 5481 5484 5484 5486 5488 5490 5489 5491 5494 5496 5499 5500 5502 5503 5504 5506 5507 5504 5508 5510 5511 5513 5516 5518 5519 5521
5573 5565 5557 5547 5537 5526 5515 5504 5493 5485 5479 5478 5478 5477 5472 5470 5470 5467 5467 5472 5472 5475 5475 5477 5478 5478 5481 5483 5487 5489 5491 5491 5492 5494 5497 5496 5496 5499 5500 5502 5505 5507 5509 5511
5559 5550 5540 5530 5519 5507 5496 5489 5481 5474 5466 5464 5468 5462 5458 5456 5455 5456 5458 5461 5462 5462 5464 5465 5467 5469 5470 5473 5474 5480 5480 5479 5480 5484 5485 5484 5487 5487 5489 5492 5495 5497 5498 5500
5544 5534 5523 5512 5501 5491 5482 5475 5469 5462 5455 5452 5453 5449 5446 5444 5443 5445 5447 5451 5453 5454 5454 5455 5458 5459 5460 5461 5464 5470 5466 5467 5469 5474 5472 5475 5478 5476 5477 5480 5484 5486 5488 5490
5529 5519 5507 5496 5486 5477 5468 5463 5456 5450 5442 5439 5439 5437 5434 5432 5431 5432 5437 5437 5438 5442 5445 5446 5448 5451 5450 5450 5457 5459 5455 5455 5458 5462 5462 5465 5466 5467 5468 5470 5473 5476 5479 5480
5514 5504 5493 5481 5471 5464 5456 5450 5445 5437 5433 5427 5425 5424 5424 5422 5420 5422 5425 5426 5429 5431 5434 5436 5439 5441 5440 5442 5448 5446 5445 5445 5449 5451 5454 5455 5455 5458 5460 5460 5462 5464 5467 5469
5499 5489 5478 5469 5459 5451 5445 5437 5432 5426 5421 5417 5415 5415 5414 5413 5410 5410 5412 5415 5420 5422 5424 5428 5429 5430 5431 5435 5438 5434 5436 5436 5438 5441 5443 5445 5446 5447 5449 5451 5451 5453 5455 5458
5483 5474 5464 5457 5448 5441 5435 5428 5422 5417 5414 5409 5407 5406 5405 5405 5404 5403 5406 5407 5410 5412 5414 5418 5418 5420 5422 5426 5426 5425 5427 5428 5429 5429 5430 5431 5433 5435 5436 5438 5440 5441 5442 5445
5466 5458 5450 5445 5438 5430 5424 5418 5413 5408 5405 5402 5399 5397 5396 5397 5396 5396 5397 5398 5400 5401 5406 5407 5409 5412 5413 5414 5415 5416 5417 5419 5420 5422 5422 5422 5423 5423 5424 5425 5426 5427 5428 5430
5451 5444 5437 5431 5425 5420 5414 5409 5405 5401 5398 5395 5393 5392 5391 5390 5391 5390 5389 5388 5389 5390 5396 5397 5400 5403 5405 5404 5405 5406 5408 5409 5411 5412 5413 5414 5414 5414 5415 5415 5415 5416 5416 5416
5438 5431 5424 5419 5413 5409 5405 5400 5397 5395 5393 5390 5388 5386 5385 5384 5382 5381 5380 5380 5379 5380 5384 5386 5388 5393 5393 5394 5395 5396 5398 5399 5400 5401 5402 5403 5404 5405 5405 5405 5405 5405 5404 5404
5424 5418 5412 5407 5403 5399 5395 5392 5390 5388 5386 5384 5383 5381 5379 5377 5375 5373 5373 5372 5372 5373 5374 5376 5380 5381 5383 5383 5384 5385 5387 5387 5389 5390 5392 5393 5393 5393 5394 5394 5393 5394 5393 5394
5411 5406 5402 5397 5394 5391 5388 5384 5383 5382 5380 5378 5376 5375 5374 5371 5370 5369 5368 5367 5367 5366 5368 5369 5370 5370 5370 5371 5372 5374 5375 5376 5377 5379 5380 5381 5381 5381 5381 5382 5382 5382 5382 5382
5400 5395 5392 5389 5386 5384 5380 5378 5378 5377 5375 5373 5371 5369 5368 5366 5365 5364 5363 5362 5361 5362 5362 5362 5362 5361 5361 5361 5362 5363 5364 5365 5366 5367 5368 5368 5369 5370 5370 5371 5371 5372 5372 5372
5391 5386 5384 5382 5380 5377 5373 5371 5372 5371 5370 5368 5366 5364 5362 5361 5359 5359 5357 5357 5356 5356 5355 5354 5353 5353 5354 5354 5354 5355 5355 5356 5357 5358 5359 5359 5360 5360 5360 5360 5361 5361 5362 5363
5382 5380 5377 5376 5373 5370 5368 5365 5365 5365 5364 5363 5361 5359 5357 5355 5353 5352 5351 5350 5349 5348 5347 5347 5347 5347 5347 5347 5346 5346 5347 5347 5348 5348 5349 5349 5349 5350 5350 5350 5350 5351 5352 5352